Weather History for KSAW - August, 2014

Change the Weather History Date:

Friday, August 8, 2014

  Actual Average (KESC) Record (KESC)
Temperature  
Mean Temperature 66 °F -  
Max Temperature 80 °F 75 °F 93 °F (1949)
Min Temperature 51 °F 59 °F 46 °F (2013)
Growing Degree Days 16 (Base 50)    
Moisture  
Dew Point 53 °F    
Average Humidity 73    
Maximum Humidity 94    
Minimum Humidity 34    
Precipitation  
Precipitation 0.00 in - - ()
Sea Level Pressure  
Sea Level Pressure 30.14 in    
Wind  
Wind Speed 1 mph (ENE)    
Max Wind Speed 12 mph    
Max Gust Speed -    
Visibility 10 miles    
Events      
Averages and records for this station are not official NWS values.
T = Trace of Precipitation, MM = Missing Value Source: NWS Daily Summary

Daily Weather History Graph

Daily Weather History Graph

Search for Another Location

Airport or City:

Trip Planner

Search our weather history database for the weather conditions in past years. The results will help you decide how hot, cold, wet, or windy it might be!

Date:

Astronomy

Aug. 08, 2014 Rise Set
Actual Time 6:39 AM EDT 9:10 PM EDT
Civil Twilight 6:05 AM EDT 9:43 PM EDT
Nautical Twilight 5:23 AM EDT 10:26 PM EDT
Astronomical Twilight 4:34 AM EDT 11:14 PM EDT
Moon 7:22 PM EDT (8/8) 4:09 AM EDT (8/8)
Length of Visible Light 15h 38m
Length of Day
14h 30m
Waxing Gibbous, 93% of the Moon is Illuminated
Aug 8
Waxing Gibbous
Aug 10
Full
Aug 17
Last Quarter
Aug 25
New
Sep 2
First Quarter

Hourly Weather History & Observations

Time (EDT) Temp. Dew Point Humidity Pressure Visibility Wind Dir Wind Speed Gust Speed Precip Events Conditions
12:16 AM 59.0 °F 54.0 °F 83% 30.13 in 10.0 mi Calm Calm - N/A   Clear
12:35 AM 57.6 °F 54.0 °F 88% 30.13 in 10.0 mi Calm Calm - N/A   Clear
12:56 AM 56.3 °F 53.1 °F 89% 30.14 in 10.0 mi Calm Calm - N/A   Clear
1:16 AM 57.0 °F 53.6 °F 88% 30.14 in 10.0 mi Calm Calm - N/A   Clear
1:35 AM 56.5 °F 53.6 °F 90% 30.14 in 10.0 mi Calm Calm - N/A   Clear
1:56 AM 57.4 °F 54.5 °F 90% 30.14 in 10.0 mi Calm Calm - N/A   Clear
2:15 AM 56.5 °F 53.8 °F 91% 30.13 in 10.0 mi Calm Calm - N/A   Clear
2:35 AM 58.1 °F 53.4 °F 84% 30.14 in 10.0 mi Calm Calm - N/A   Clear
2:56 AM 58.5 °F 54.7 °F 87% 30.14 in 10.0 mi Calm Calm - N/A   Clear
3:15 AM 55.4 °F 51.4 °F 87% 30.14 in 10.0 mi Calm Calm - N/A   Scattered Clouds
3:35 AM 55.8 °F 51.8 °F 87% 30.13 in 10.0 mi Calm Calm - N/A   Scattered Clouds
3:56 AM 55.9 °F 51.8 °F 86% 30.13 in 10.0 mi Calm Calm - N/A   Clear
4:15 AM 56.7 °F 52.9 °F 87% 30.14 in 10.0 mi Calm Calm - N/A   Clear
4:36 AM 55.6 °F 53.1 °F 91% 30.14 in 10.0 mi Calm Calm - N/A   Scattered Clouds
4:55 AM 56.3 °F 53.6 °F 91% 30.14 in 10.0 mi Calm Calm - N/A   Scattered Clouds
5:15 AM 55.6 °F 51.8 °F 87% 30.14 in 10.0 mi Calm Calm - N/A   Scattered Clouds
5:36 AM 53.8 °F 50.7 °F 89% 30.16 in 10.0 mi Calm Calm - N/A   Clear
5:55 AM 52.9 °F 49.8 °F 89% 30.16 in 10.0 mi Calm Calm - N/A   Clear
6:50 AM 51.8 °F 46.4 °F 82% 30.17 in 10.0 mi Calm Calm - N/A   Clear
7:45 AM 53.6 °F 51.8 °F 94% 30.17 in 10.0 mi Calm Calm - N/A   Scattered Clouds
8:50 AM 62.6 °F 55.4 °F 77% 30.18 in 10.0 mi Calm Calm - N/A   Scattered Clouds
9:45 AM 69.8 °F 57.2 °F 64% 30.17 in 10.0 mi West 3.5 mph - N/A   Clear
10:50 AM 73.4 °F 57.2 °F 57% 30.17 in 10.0 mi West 3.5 mph - N/A   Clear
11:50 AM 77.0 °F 51.8 °F 41% 30.16 in 10.0 mi ENE 3.5 mph - N/A   Clear
12:50 PM 78.8 °F 51.8 °F 39% 30.16 in 10.0 mi SSE 5.8 mph - N/A   Scattered Clouds
1:45 PM 78.8 °F 51.8 °F 39% 30.15 in 10.0 mi NE 9.2 mph - N/A   Scattered Clouds
2:50 PM 80.6 °F 50.0 °F 34% 30.14 in 10.0 mi East 5.8 mph - N/A   Clear
3:50 PM 80.6 °F 51.8 °F 37% 30.13 in 10.0 mi NE 11.5 mph - N/A   Scattered Clouds
4:45 PM 78.8 °F 55.4 °F 44% 30.12 in 10.0 mi NE 11.5 mph - N/A   Scattered Clouds
5:45 PM 78.8 °F 55.4 °F 44% 30.12 in 10.0 mi NE 11.5 mph - N/A   Clear
6:50 PM 75.2 °F 55.4 °F 50% 30.12 in 10.0 mi NE 10.4 mph - N/A   Clear
7:50 PM 73.4 °F 57.2 °F 57% 30.12 in 10.0 mi ENE 8.1 mph - N/A   Clear
8:45 PM 71.6 °F 59.0 °F 64% 30.12 in 10.0 mi East 4.6 mph - N/A   Clear
10:04 PM 69.8 °F 55.4 °F 60% 30.14 in 10.0 mi SSE 3.5 mph - N/A   Clear
11:58 PM 62.6 °F 53.6 °F 72% 30.16 in 10.0 mi Calm Calm - N/A   Clear